Weather History for Imperial, CA

Change the Weather History Date:

Thursday, September 12, 2013

  Actual Average Record
Temperature  
Mean Temperature 88 °F -  
Max Temperature 104 °F 101 °F 115 °F (1971)
Min Temperature 75 °F 72 °F 58 °F (1952)
Cooling Degree Days 24    
Growing Degree Days 38 (Base 50)    
Moisture  
Dew Point 52 °F    
Average Humidity 30    
Maximum Humidity 48    
Minimum Humidity 15    
Precipitation  
Precipitation 0.00 in - - ()
Sea Level Pressure  
Sea Level Pressure 29.76 in    
Wind  
Wind Speed 3 mph (WSW)    
Max Wind Speed 7 mph    
Max Gust Speed -    
Visibility 10 miles    
Events      
Averages and records for this station are not official NWS values.
T = Trace of Precipitation, MM = Missing Value Source: NWS Daily Summary

Daily Weather History Graph

Daily Weather History Graph

Search for Another Location

Airport:

Trip Planner

Search our weather history database for the weather conditions in past years. The results will help you decide how hot, cold, wet, or windy it might be!

Date:

Astronomy

Sep. 12, 2013 Rise Set
Actual Time 6:24 AM PDT 6:52 PM PDT
Civil Twilight 5:59 AM PDT 7:16 PM PDT
Nautical Twilight 5:30 AM PDT 7:45 PM PDT
Astronomical Twilight 5:00 AM PDT 8:15 PM PDT
Moon 1:35 PM PDT (9/12) No Moon Set
Length of Visible Light 13h 17m
Length of Day
12h 27m
Waxing Crescent, 51% of the Moon is Illuminated
Sep 12
Waxing Crescent
Sep 19
Full
Sep 26
Last Quarter
Oct 4
New
Oct 11
First Quarter

Hourly Weather History & Observations

Time (PDT) Temp. Heat Index Dew Point Humidity Pressure Visibility Wind Dir Wind Speed Gust Speed Precip Events Conditions
12:53 AM 82.0 °F - 51.1 °F 34% 29.80 in 10.0 mi WSW 5.8 mph - N/A   Clear
1:53 AM 81.0 °F - 51.1 °F 35% 29.79 in 10.0 mi West 5.8 mph - N/A   Clear
2:53 AM 79.0 °F - 51.1 °F 38% 29.78 in 10.0 mi West 3.5 mph - N/A   Clear
3:53 AM 79.0 °F - 52.0 °F 39% 29.78 in 10.0 mi Calm Calm - N/A   Clear
4:53 AM 75.9 °F - 55.0 °F 48% 29.78 in 10.0 mi Calm Calm - N/A   Clear
5:53 AM 77.0 °F - 53.1 °F 43% 29.80 in 10.0 mi Calm Calm - N/A   Clear
6:53 AM 75.9 °F - 53.1 °F 45% 29.82 in 10.0 mi SSW 3.5 mph - N/A   Clear
7:53 AM 80.1 °F - 51.1 °F 36% 29.83 in 10.0 mi Calm Calm - N/A   Clear
8:53 AM 84.0 °F 82.6 °F 54.0 °F 35% 29.83 in 10.0 mi Calm Calm - N/A   Clear
9:53 AM 88.0 °F 88.4 °F 62.1 °F 42% 29.83 in 10.0 mi Calm Calm - N/A   Clear
10:53 AM 93.0 °F 91.4 °F 55.9 °F 29% 29.82 in 6.0 mi Calm Calm - N/A   Haze
11:53 AM 97.0 °F - 51.1 °F 21% 29.80 in 10.0 mi Calm Calm - N/A   Clear
12:53 PM 100.9 °F - 48.0 °F 17% 29.78 in 10.0 mi NNE 6.9 mph - N/A   Clear
1:53 PM 102.0 °F - 48.0 °F 16% 29.75 in 10.0 mi North 4.6 mph - N/A   Clear
2:53 PM 100.9 °F - 46.9 °F 16% 29.73 in 10.0 mi East 4.6 mph - N/A   Clear
3:53 PM 102.9 °F - 46.0 °F 15% 29.71 in 10.0 mi Variable 3.5 mph - N/A   Clear
4:53 PM 100.9 °F - 45.0 °F 15% 29.69 in 10.0 mi Calm Calm - N/A   Clear
5:53 PM 100.9 °F - 46.0 °F 15% 29.68 in 10.0 mi Calm Calm - N/A   Clear
6:53 PM 96.1 °F - 52.0 °F 22% 29.68 in 10.0 mi SW 3.5 mph - N/A   Clear
7:53 PM 91.0 °F 88.5 °F 53.1 °F 27% 29.68 in 10.0 mi SW 4.6 mph - N/A   Clear
8:53 PM 88.0 °F 85.9 °F 54.0 °F 31% 29.69 in 10.0 mi Calm Calm - N/A   Clear
9:53 PM 84.9 °F 83.6 °F 55.0 °F 36% 29.71 in 10.0 mi WSW 4.6 mph - N/A   Clear
10:53 PM 84.0 °F - 52.0 °F 33% 29.71 in 10.0 mi West 4.6 mph - N/A   Clear
11:53 PM 82.0 °F - 51.1 °F 34% 29.71 in 10.0 mi West 3.5 mph - N/A   Clear